• In Latvia
  • List of Countries
  • For 7 days
  • Water Temperature
  • Satellite Maps
  • Weather Map
  • Weather Widgets
  • user-avatar
    Login

    Hourly Weather Tomdibuloq

    Today, 24 October, Wednesday

    Time Temperature Precipitation Wind Pressure Humidity
    00:00 +14°C° 0 mm 4 mps 742 mmHg 32%
    01:00 +14°C° 0 mm 4 mps 742 mmHg 33%
    02:00 +14°C° 0 mm 3 mps 742 mmHg 34%
    03:00 +13°C° 0 mm 3 mps 741 mmHg 35%
    04:00 +13°C° 0 mm 3 mps 741 mmHg 36%
    05:00 +13°C° 0 mm 3 mps 741 mmHg 37%
    06:00 +13°C° 0 mm 3 mps 741 mmHg 37%
    07:00 +13°C° 0 mm 3 mps 741 mmHg 38%
    08:00 +16°C° 0 mm 3 mps 741 mmHg 35%
    09:00 +17°C° 0 mm 4 mps 741 mmHg 31%
    10:00 +19°C° 0 mm 4 mps 741 mmHg 28%
    11:00 +20°C° 0 mm 4 mps 741 mmHg 26%
    12:00 +21°C° 0 mm 3 mps 740 mmHg 23%
    13:00 +22°C° 0 mm 3 mps 740 mmHg 21%
    14:00 +22°C° 0.1 mm 3 mps 740 mmHg 21%
    15:00 +22°C° 0.1 mm 3 mps 740 mmHg 21%
    16:00 +23°C° 0.1 mm 2 mps 740 mmHg 21%
    17:00 +21°C° 0 mm 3 mps 740 mmHg 23%
    18:00 +21°C° 0 mm 3 mps 740 mmHg 24%
    19:00 +20°C° 0 mm 3 mps 739 mmHg 26%
    20:00 +19°C° 0 mm 3 mps 739 mmHg 26%
    21:00 +19°C° 0 mm 3 mps 739 mmHg 27%
    22:00 +18°C° 0 mm 3 mps 739 mmHg 28%
    23:00 +18°C° 0 mm 3 mps 739 mmHg 29%

    Tomorrow, 25 October, Thursday

    Time Temperature Precipitation Wind Pressure Humidity
    00:00 +18°C° 0 mm 3 mps 739 mmHg 30%
    01:00 +18°C° 0 mm 3 mps 739 mmHg 31%
    02:00 +17°C° 0 mm 3 mps 739 mmHg 32%
    03:00 +17°C° 0 mm 3 mps 738 mmHg 33%
    04:00 +17°C° 0 mm 3 mps 738 mmHg 33%
    05:00 +17°C° 0 mm 3 mps 738 mmHg 32%
    06:00 +17°C° 0 mm 3 mps 739 mmHg 32%
    07:00 +17°C° 0 mm 3 mps 739 mmHg 31%
    08:00 +19°C° 0 mm 3 mps 739 mmHg 26%
    09:00 +21°C° 0 mm 3 mps 739 mmHg 22%
    10:00 +22°C° 0 mm 3 mps 739 mmHg 18%
    11:00 +25°C° 0 mm 3 mps 739 mmHg 16%
    12:00 +26°C° 0 mm 3 mps 738 mmHg 15%
    13:00 +27°C° 0 mm 3 mps 738 mmHg 13%
    14:00 +27°C° 0 mm 3 mps 738 mmHg 13%
    15:00 +26°C° 0 mm 3 mps 738 mmHg 14%
    16:00 +26°C° 0 mm 2 mps 737 mmHg 14%
    17:00 +25°C° 0 mm 3 mps 737 mmHg 15%
    18:00 +23°C° 0 mm 4 mps 737 mmHg 17%
    19:00 +22°C° 0 mm 4 mps 737 mmHg 18%
    20:00 +22°C° 0 mm 4 mps 737 mmHg 18%
    21:00 +21°C° 0 mm 5 mps 737 mmHg 19%
    22:00 +21°C° 0 mm 5 mps 737 mmHg 19%
    23:00 +20°C° 0 mm 4 mps 737 mmHg 20%

    Day after tomorrow, 26 October, Friday

    Time Temperature Precipitation Wind Pressure Humidity
    00:00 +20°C° 0 mm 4 mps 737 mmHg 20%
    01:00 +20°C° 0 mm 4 mps 737 mmHg 21%
    02:00 +20°C° 0 mm 4 mps 737 mmHg 21%
    03:00 +19°C° 0 mm 4 mps 737 mmHg 21%
    04:00 +19°C° 0 mm 3 mps 737 mmHg 21%
    05:00 +19°C° 0 mm 4 mps 737 mmHg 21%
    06:00 +19°C° 0 mm 4 mps 737 mmHg 21%
    07:00 +19°C° 0 mm 4 mps 737 mmHg 21%
    08:00 +21°C° 0 mm 5 mps 737 mmHg 19%
    09:00 +23°C° 0 mm 6 mps 737 mmHg 18%
    10:00 +27°C° 0 mm 6 mps 737 mmHg 16%
    11:00 +28°C° 0 mm 7 mps 737 mmHg 15%
    12:00 +29°C° 0 mm 7 mps 736 mmHg 14%
    13:00 +30°C° 0 mm 7 mps 736 mmHg 13%
    14:00 +30°C° 0 mm 6 mps 736 mmHg 14%
    15:00 +30°C° 0 mm 4 mps 736 mmHg 14%
    16:00 +29°C° 0 mm 3 mps 736 mmHg 15%
    17:00 +28°C° 0 mm 3 mps 736 mmHg 16%
    18:00 +28°C° 0 mm 4 mps 736 mmHg 17%
    19:00 +27°C° 0 mm 4 mps 736 mmHg 18%
    20:00 +26°C° 0 mm 4 mps 736 mmHg 19%
    21:00 +26°C° 0 mm 4 mps 735 mmHg 20%
    22:00 +25°C° 0 mm 4 mps 735 mmHg 20%
    23:00 +25°C° 0 mm 4 mps 735 mmHg 21%

    27 October, Saturday

    Time Temperature Precipitation Wind Pressure Humidity
    00:00 +23°C° 0 mm 5 mps 735 mmHg 21%
    01:00 +23°C° 0 mm 5 mps 735 mmHg 22%
    02:00 +23°C° 0 mm 5 mps 735 mmHg 22%
    03:00 +22°C° 0 mm 5 mps 734 mmHg 23%
    04:00 +22°C° 0 mm 4 mps 734 mmHg 23%
    05:00 +22°C° 0 mm 4 mps 735 mmHg 24%
    06:00 +22°C° 0 mm 4 mps 735 mmHg 24%
    07:00 +21°C° 0 mm 4 mps 735 mmHg 24%
    08:00 +23°C° 0 mm 5 mps 735 mmHg 22%
    09:00 +24°C° 0 mm 6 mps 736 mmHg 20%
    10:00 +26°C° 0 mm 7 mps 736 mmHg 18%
    11:00 +26°C° 0 mm 7 mps 736 mmHg 19%
    12:00 +27°C° 0 mm 6 mps 737 mmHg 20%
    13:00 +27°C° 0 mm 5 mps 737 mmHg 21%
    14:00 +24°C° 0 mm 7 mps 738 mmHg 33%
    15:00 +23°C° 0 mm 8 mps 739 mmHg 44%
    16:00 +22°C° 0 mm 10 mps 740 mmHg 56%
    17:00 +19°C° 0.1 mm 9 mps 741 mmHg 60%
    18:00 +18°C° 0.1 mm 8 mps 742 mmHg 65%
    19:00 +16°C° 0.1 mm 8 mps 743 mmHg 69%
    20:00 +16°C° 0 mm 8 mps 744 mmHg 63%
    21:00 +15°C° 0 mm 8 mps 745 mmHg 58%
    22:00 +13°C° 0 mm 8 mps 746 mmHg 52%
    23:00 +14°C° 0 mm 7 mps 747 mmHg 50%

    28 October, Sunday

    Time Temperature Precipitation Wind Pressure Humidity
    00:00 +14°C° 0 mm 7 mps 747 mmHg 48%
    01:00 +13°C° 0 mm 6 mps 748 mmHg 46%
    02:00 +13°C° 0 mm 5 mps 749 mmHg 46%
    03:00 +12°C° 0 mm 4 mps 749 mmHg 46%
    04:00 +12°C° 0 mm 3 mps 750 mmHg 47%
    05:00 +12°C° 0 mm 3 mps 750 mmHg 47%
    06:00 +12°C° 0 mm 3 mps 751 mmHg 48%
    07:00 +12°C° 0 mm 3 mps 751 mmHg 49%
    08:00 +13°C° 0 mm 3 mps 752 mmHg 45%
    09:00 +14°C° 0 mm 4 mps 752 mmHg 40%
    10:00 +14°C° 0 mm 5 mps 752 mmHg 36%
    11:00 +15°C° 0 mm 5 mps 752 mmHg 34%
    12:00 +16°C° 0 mm 5 mps 751 mmHg 31%
    13:00 +16°C° 0 mm 5 mps 751 mmHg 28%
    14:00 +16°C° 0 mm 5 mps 751 mmHg 28%
    15:00 +16°C° 0 mm 5 mps 751 mmHg 28%
    16:00 +16°C° 0 mm 5 mps 751 mmHg 28%
    17:00 +15°C° 0 mm 4 mps 751 mmHg 30%
    18:00 +15°C° 0 mm 4 mps 751 mmHg 32%
    19:00 +14°C° 0 mm 4 mps 751 mmHg 33%
    20:00 +14°C° 0 mm 4 mps 751 mmHg 35%
    21:00 +13°C° 0 mm 3 mps 751 mmHg 37%
    22:00 +13°C° 0 mm 3 mps 751 mmHg 39%
    23:00 +12°C° 0 mm 3 mps 751 mmHg 40%

    29 October, Monday

    Time Temperature Precipitation Wind Pressure Humidity
    00:00 +12°C° 0 mm 3 mps 751 mmHg 42%
    01:00 +12°C° 0 mm 3 mps 750 mmHg 43%
    02:00 +11°C° 0 mm 3 mps 750 mmHg 44%
    03:00 +11°C° 0 mm 3 mps 751 mmHg 46%
    04:00 +11°C° 0 mm 3 mps 751 mmHg 47%
    05:00 +11°C° 0 mm 3 mps 751 mmHg 47%
    06:00 +11°C° 0 mm 3 mps 751 mmHg 48%
    07:00 +11°C° 0 mm 3 mps 751 mmHg 48%
    08:00 +12°C° 0 mm 3 mps 751 mmHg 44%
    09:00 +13°C° 0 mm 4 mps 751 mmHg 39%
    10:00 +15°C° 0 mm 4 mps 751 mmHg 35%
    11:00 +15°C° 0 mm 4 mps 751 mmHg 32%
    12:00 +17°C° 0 mm 4 mps 751 mmHg 30%
    13:00 +17°C° 0 mm 5 mps 751 mmHg 27%
    14:00 +17°C° 0 mm 5 mps 751 mmHg 27%
    15:00 +17°C° 0 mm 5 mps 751 mmHg 28%
    16:00 +17°C° 0 mm 5 mps 751 mmHg 28%
    17:00 +17°C° 0 mm 4 mps 751 mmHg 31%
    18:00 +15°C° 0 mm 4 mps 751 mmHg 33%
    19:00 +14°C° 0 mm 4 mps 751 mmHg 36%
    20:00 +14°C° 0 mm 4 mps 751 mmHg 37%
    21:00 +14°C° 0 mm 4 mps 751 mmHg 39%
    22:00 +13°C° 0 mm 4 mps 751 mmHg 40%
    23:00 +13°C° 0 mm 4 mps 751 mmHg 42%

    30 October, Tuesday

    Time Temperature Precipitation Wind Pressure Humidity
    00:00 +12°C° 0 mm 4 mps 751 mmHg 43%
    01:00 +12°C° 0 mm 4 mps 751 mmHg 44%
    02:00 +12°C° 0 mm 4 mps 751 mmHg 46%
    03:00 +12°C° 0 mm 4 mps 751 mmHg 48%
    04:00 +11°C° 0 mm 4 mps 751 mmHg 50%
    05:00 +11°C° 0 mm 4 mps 751 mmHg 52%
    06:00 +11°C° 0 mm 4 mps 752 mmHg 53%
    07:00 +11°C° 0 mm 4 mps 752 mmHg 55%
    08:00 +13°C° 0 mm 5 mps 752 mmHg 51%
    09:00 +14°C° 0 mm 5 mps 752 mmHg 47%
    10:00 +16°C° 0 mm 6 mps 752 mmHg 42%
    11:00 +17°C° 0 mm 6 mps 751 mmHg 40%
    12:00 +17°C° 0 mm 7 mps 751 mmHg 38%
    13:00 +18°C° 0 mm 7 mps 751 mmHg 35%
    14:00 +18°C° 0 mm 7 mps 750 mmHg 36%
    15:00 +18°C° 0 mm 7 mps 750 mmHg 37%
    16:00 +18°C° 0 mm 7 mps 750 mmHg 38%
    17:00 +17°C° 0 mm 6 mps 750 mmHg 42%
    18:00 +17°C° 0 mm 6 mps 750 mmHg 46%
    19:00 +16°C° 0 mm 6 mps 750 mmHg 50%
    20:00 +16°C° 0 mm 6 mps 750 mmHg 53%
    21:00 +15°C° 0 mm 6 mps 749 mmHg 57%
    22:00 +15°C° 0 mm 6 mps 749 mmHg 60%
    23:00 +14°C° 0 mm 6 mps 749 mmHg 62%
    Show more